IRIDIUM 62 [+]

Last updated on Wed May 30 2018 01:19:59 GMT+0100 (British Summer Time)

1 25285U 98021A 18149.35692907 .00000154 00000-0 43804-4 0 9999 2 25285 86.4227 79.2386 0002113 80.5278 279.6159 14.38606082 54630
UTC large
Height (km)
Speed (km/s)
/
Latitude / Longitude
Inclination (degrees)
Orbital Period (minutes)
Azimuth
Elevation
Range (km)
Doppler Factor

Next 0 passes for location: London (51.5072 / 0.1276)

Sorry there are no passes over London.